Home > Weather > Enns > Past weeks

Flag for Austria Past Weather in Enns, Upper Austria, Austria — Yesterday and Last 2 Weeks

Now
79 °F

Partly sunny.


Feels Like: 80 °F
Forecast: 60 / 85 °F
Wind: 3 mph from Northwest

Location: Linz / Hoersching-Flughafen

Current Time: Jun 29, 2016 at 4:44:42 PM

Latest Report: Jun 29, 2016 at 4:00 PM


Visibility: 22 mi

Pressure: 29.94 "Hg

Humidity: 46%

Dew Point: 56 °F

Location of EnnsLocation

Past Weather in Enns — Graph

°F

Enns Temperature Yesterday

Maximum temperature yesterday: 77 °F (at 5:00 PM)
Minimum temperature yesterday: 59 °F (at 5:00 AM)
Average temperature yesterday: 68 °F

High & Low Weather Summary for the Past Weeks

 TemperatureHumidityPressure
High92 °F (Jun 24, 4:00 PM)100% (Jun 21, 6:00 AM)30.29 "Hg (Jun 21, 6:00 AM)
Low53 °F (Jun 21, 2:00 AM)32% (Jun 24, 5:00 PM)29.44 "Hg (Jun 16, 5:00 PM)
Average67 °F72%29.99 "Hg
* Reported Jun 14 2:00 PM — Jun 29 2:00 PM, Enns, Weather by CustomWeather, © 2016

Note: Actual official high and low records may vary slightly from our data, if they occured in-between our weather recording intervals... More about our weather records

Advertising

Enns Weather History for the Previous 24 Hours

Scroll right to see more
 ConditionsComfort  
Time TempWeatherWind HumidityBarometerVisibility
2:00 PM
Wed, Jun 29
79 °FPassing clouds.5 mph43%29.96 "Hg19 mi
1:00 PM78 °FScattered clouds.6 mph51%29.97 "Hg19 mi
12:00 PM77 °FPassing clouds.6 mph55%29.96 "Hg19 mi
11:00 AM73 °FPassing clouds.6 mph58%29.98 "Hg14 mi
10:00 AM70 °FPassing clouds.N/A66%30.00 "Hg17 mi
9:00 AM66 °FScattered clouds.N/A74%30.01 "Hg10 mi
8:00 AM65 °FPassing clouds.N/A78%29.99 "Hg19 mi
7:00 AM58 °FScattered clouds.N/A92%30.00 "Hg9 mi
6:00 AM57 °FPassing clouds.N/A94%30.00 "Hg7 mi
5:00 AM56 °FPassing clouds.N/A96%29.99 "Hg6 mi
3:00 AM59 °FCool.N/A90%29.99 "Hg17 mi
2:00 AM60 °FPassing clouds.N/A92%29.99 "Hg11 mi
1:00 AM62 °FCool.N/A82%30.00 "Hg19 mi
12:00 AM63 °FMild.N/A81%30.00 "Hg22 mi
11:00 PM
Tue, Jun 28
N/APassing clouds.13 mphN/AN/A34 mi
10:00 PM67 °FMild.N/A71%29.99 "Hg25 mi
9:00 PM74 °FMild.N/A47%29.97 "Hg28 mi
8:00 PM75 °FPassing clouds.N/A48%29.97 "Hg22 mi
7:00 PM77 °FPassing clouds.N/A43%29.98 "Hg31 mi
6:00 PM77 °FPassing clouds.N/A40%29.99 "Hg19 mi
5:00 PM77 °FPassing clouds.5 mph40%29.99 "Hg22 mi
4:00 PM77 °FPassing clouds.5 mph42%30.01 "Hg25 mi
Weather by CustomWeather, © 2016

See weather overviewHow to use our weather pages